| time (UTC) | temp F | wind direction | speed MPH | gust MPH | rain 1hr in | rain 24hr in | rain mn in | humidity % | barometer mb |
| 20260510043104 | 50 | 136 | 0.0 | 3.0 | 0.00 | 0.42 | 0.00 | 94 | 1010.0 |
| 20260510041555 | 50 | 178 | 1.0 | 3.0 | 0.00 | 0.42 | 0.00 | 94 | 1009.8 |
| 20260510040053 | 50 | 130 | 0.0 | 3.0 | 0.00 | 0.42 | 0.00 | 94 | 1009.9 |
| 20260510034552 | 50 | 113 | 1.0 | 5.0 | 0.00 | 0.42 | 0.42 | 94 | 1009.9 |
| 20260510033101 | 50 | 138 | 1.0 | 3.0 | 0.00 | 0.42 | 0.42 | 94 | 1009.9 |
| 20260510031553 | 50 | 150 | 1.0 | 2.0 | 0.00 | 0.42 | 0.42 | 94 | 1009.9 |
| 20260510030051 | 50 | 150 | 1.0 | 3.0 | 0.00 | 0.42 | 0.42 | 94 | 1009.9 |
| 20260510024551 | 50 | 150 | 1.0 | 4.0 | 0.00 | 0.42 | 0.42 | 94 | 1009.8 |
| 20260510023049 | 50 | 148 | 0.0 | 2.0 | 0.00 | 0.42 | 0.42 | 94 | 1009.9 |
| 20260510021552 | 50 | 191 | 1.0 | 4.0 | 0.00 | 0.42 | 0.42 | 94 | 1010.0 |
| 20260510020049 | 49 | 150 | 0.0 | 1.0 | 0.00 | 0.42 | 0.42 | 92 | 1010.0 |
| 20260510014548 | 49 | 150 | 0.0 | 2.0 | 0.00 | 0.42 | 0.42 | 92 | 1009.8 |
| 20260510013051 | 49 | 150 | 0.0 | 0.0 | 0.00 | 0.42 | 0.42 | 91 | 1009.7 |
| 20260510011551 | 50 | 150 | 0.0 | 1.0 | 0.00 | 0.42 | 0.42 | 91 | 1009.5 |
| 20260510010046 | 51 | 150 | 0.0 | 1.0 | 0.00 | 0.42 | 0.42 | 90 | 1009.4 |
| 20260510004545 | 51 | 150 | 0.0 | 2.0 | 0.00 | 0.42 | 0.42 | 90 | 1009.2 |
| 20260510003045 | 52 | 150 | 0.0 | 2.0 | 0.00 | 0.42 | 0.42 | 89 | 1009.2 |
| 20260510001644 | 52 | 150 | 0.0 | 0.0 | 0.00 | 0.42 | 0.42 | 88 | 1009.2 |
| 20260510000050 | 53 | 150 | 0.0 | 3.0 | 0.00 | 0.42 | 0.42 | 88 | 1009.0 |
| 20260509234543 | 54 | 150 | 1.0 | 3.0 | 0.00 | 0.42 | 0.42 | 87 | 1008.7 |
| 20260509233043 | 54 | 152 | 1.0 | 2.0 | 0.00 | 0.42 | 0.42 | 86 | 1008.6 |
| 20260509231544 | 54 | 188 | 0.0 | 4.0 | 0.00 | 0.42 | 0.42 | 86 | 1008.5 |
| 20260509230041 | 55 | 164 | 2.0 | 5.0 | 0.00 | 0.42 | 0.42 | 84 | 1008.3 |
| 20260509224540 | 55 | 128 | 1.0 | 7.0 | 0.00 | 0.42 | 0.42 | 83 | 1008.6 |
| 20260509223040 | 55 | 155 | 1.0 | 4.0 | 0.00 | 0.42 | 0.42 | 85 | 1008.6 |
| 20260509221538 | 55 | 198 | 3.0 | 5.0 | 0.00 | 0.42 | 0.42 | 85 | 1008.5 |
| 20260509220037 | 55 | 146 | 2.0 | 4.0 | 0.00 | 0.42 | 0.42 | 86 | 1008.6 |
| 20260509214537 | 54 | 213 | 1.0 | 5.0 | 0.00 | 0.42 | 0.42 | 87 | 1008.7 |
| 20260509213034 | 54 | 225 | 2.0 | 9.0 | 0.00 | 0.42 | 0.42 | 86 | 1008.8 |
| 20260509211529 | 54 | 185 | 1.0 | 4.0 | 0.00 | 0.42 | 0.42 | 91 | 1009.0 |
| 20260509210030 | 53 | 206 | 1.0 | 5.0 | 0.00 | 0.42 | 0.42 | 92 | 1009.0 |
| 20260509204525 | 52 | 160 | 1.0 | 3.0 | 0.01 | 0.42 | 0.42 | 93 | 1009.1 |
| 20260509203024 | 51 | 153 | 2.0 | 6.0 | 0.01 | 0.42 | 0.42 | 93 | 1009.1 |
| 20260509201520 | 51 | 243 | 0.0 | 3.0 | 0.03 | 0.42 | 0.42 | 93 | 1009.1 |
| 20260509200020 | 51 | 200 | 1.0 | 2.0 | 0.05 | 0.42 | 0.42 | 93 | 1009.2 |
| 20260509194516 | 51 | 200 | 0.0 | 2.0 | 0.05 | 0.41 | 0.41 | 93 | 1009.6 |
| 20260509193023 | 50 | 180 | 1.0 | 3.0 | 0.06 | 0.41 | 0.41 | 93 | 1009.9 |
| 20260509191512 | 50 | 176 | 2.0 | 5.0 | 0.06 | 0.39 | 0.39 | 93 | 1010.1 |
| 20260509190011 | 50 | 218 | 1.0 | 5.0 | 0.07 | 0.37 | 0.37 | 93 | 1010.3 |
| 20260509184527 | 50 | 154 | 0.0 | 3.0 | 0.09 | 0.36 | 0.36 | 92 | 1010.2 |
| 20260509183009 | 50 | 198 | 0.0 | 4.0 | 0.11 | 0.35 | 0.35 | 92 | 1010.2 |
| 20260509181508 | 50 | 193 | 2.0 | 7.0 | 0.12 | 0.33 | 0.33 | 92 | 1010.4 |
| 20260509180013 | 50 | 147 | 1.0 | 8.0 | 0.12 | 0.30 | 0.30 | 92 | 1010.3 |
| 20260509174507 | 50 | 142 | 3.0 | 6.0 | 0.12 | 0.28 | 0.27 | 92 | 1010.3 |
| 20260509173006 | 50 | 154 | 2.0 | 7.0 | 0.10 | 0.25 | 0.24 | 92 | 1010.4 |
| 20260509171505 | 50 | 194 | 2.0 | 5.0 | 0.09 | 0.22 | 0.21 | 92 | 1010.5 |
| 20260509170009 | 50 | 167 | 3.0 | 6.0 | 0.08 | 0.19 | 0.18 | 91 | 1010.4 |
| 20260509164504 | 50 | 234 | 2.0 | 7.0 | 0.06 | 0.16 | 0.15 | 92 | 1010.5 |
| 20260509163003 | 50 | 163 | 3.0 | 7.0 | 0.06 | 0.15 | 0.14 | 92 | 1010.5 |
| 20260509161502 | 50 | 131 | 3.0 | 10.0 | 0.04 | 0.13 | 0.12 | 91 | 1010.5 |
| 20260509160003 | 50 | 146 | 3.0 | 6.0 | 0.02 | 0.11 | 0.10 | 91 | 1010.6 |
| 20260509154502 | 50 | 165 | 2.0 | 9.0 | 0.02 | 0.10 | 0.09 | 91 | 1010.8 |
| 20260509153118 | 50 | 157 | 4.0 | 7.0 | 0.02 | 0.09 | 0.08 | 92 | 1010.8 |
| 20260509151600 | 50 | 181 | 1.0 | 3.0 | 0.03 | 0.09 | 0.08 | 91 | 1010.6 |
| 20260509150058 | 50 | 109 | 1.0 | 4.0 | 0.04 | 0.09 | 0.08 | 91 | 1010.4 |
| 20260509144502 | 50 | 203 | 0.0 | 2.0 | 0.05 | 0.08 | 0.07 | 90 | 1010.7 |
| 20260509143001 | 50 | 205 | 0.0 | 3.0 | 0.04 | 0.07 | 0.06 | 90 | 1011.1 |
| 20260509141600 | 50 | 159 | 1.0 | 7.0 | 0.02 | 0.05 | 0.04 | 89 | 1011.1 |
| 20260509134557 | 50 | 134 | 0.0 | 2.0 | 0.01 | 0.03 | 0.02 | 88 | 1010.5 |
| 20260509133057 | 50 | 114 | 0.0 | 2.0 | 0.01 | 0.03 | 0.02 | 89 | 1010.5 |
| 20260509131553 | 49 | 104 | 1.0 | 3.0 | 0.01 | 0.03 | 0.02 | 90 | 1010.5 |
| 20260509124553 | 48 | 121 | 0.0 | 2.0 | 0.00 | 0.02 | 0.01 | 90 | 1010.7 |
| 20260509123050 | 48 | 121 | 1.0 | 2.0 | 0.00 | 0.02 | 0.01 | 91 | 1010.6 |
| 20260509121547 | 48 | 265 | 0.0 | 2.0 | 0.00 | 0.02 | 0.01 | 93 | 1010.8 |
| 20260509120042 | 47 | 265 | 0.0 | 2.0 | 0.00 | 0.02 | 0.01 | 93 | 1011.0 |
| 20260509114549 | 47 | 265 | 0.0 | 1.0 | 0.01 | 0.02 | 0.01 | 93 | 1010.8 |
| 20260509113043 | 47 | 265 | 0.0 | 1.0 | 0.01 | 0.02 | 0.01 | 93 | 1010.8 |
| 20260509111540 | 46 | 265 | 0.0 | 3.0 | 0.01 | 0.02 | 0.01 | 93 | 1010.7 |
| 20260509110038 | 46 | 266 | 0.0 | 1.0 | 0.01 | 0.02 | 0.01 | 93 | 1010.9 |
| 20260509104538 | 46 | 266 | 0.0 | 2.0 | 0.00 | 0.01 | 0.00 | 92 | 1010.6 |
| 20260509103044 | 46 | 266 | 1.0 | 2.0 | 0.00 | 0.01 | 0.00 | 92 | 1010.6 |
| 20260509101555 | 46 | 266 | 0.0 | 4.0 | 0.00 | 0.01 | 0.00 | 92 | 1010.6 |
| 20260509100036 | 46 | 143 | 0.0 | 3.0 | 0.00 | 0.01 | 0.00 | 91 | 1010.8 |
| 20260509094539 | 46 | 138 | 0.0 | 1.0 | 0.00 | 0.01 | 0.00 | 91 | 1010.8 |
| 20260509093034 | 46 | 138 | 0.0 | 0.0 | 0.00 | 0.01 | 0.00 | 91 | 1010.8 |
| 20260509091532 | 46 | 138 | 0.0 | 0.0 | 0.00 | 0.01 | 0.00 | 91 | 1011.0 |
| 20260509090038 | 46 | 138 | 0.0 | 0.0 | 0.00 | 0.01 | 0.00 | 91 | 1011.1 |
| 20260509084529 | 46 | 138 | 0.0 | 1.0 | 0.00 | 0.01 | 0.00 | 91 | 1011.2 |
| 20260509083035 | 46 | 138 | 0.0 | 0.0 | 0.00 | 0.01 | 0.00 | 91 | 1011.5 |
| 20260509081529 | 46 | 138 | 0.0 | 0.0 | 0.00 | 0.01 | 0.00 | 91 | 1011.5 |
| 20260509080028 | 46 | 138 | 0.0 | 0.0 | 0.00 | 0.01 | 0.00 | 91 | 1011.7 |
| 20260509074526 | 46 | 138 | 0.0 | 1.0 | 0.00 | 0.01 | 0.00 | 91 | 1011.8 |
| 20260509073030 | 46 | 138 | 0.0 | 1.0 | 0.00 | 0.01 | 0.00 | 91 | 1011.8 |
| 20260509071533 | 46 | 138 | 0.0 | 0.0 | 0.00 | 0.01 | 0.00 | 91 | 1011.6 |
| 20260509070025 | 46 | 138 | 0.0 | 2.0 | 0.00 | 0.01 | 0.00 | 90 | 1011.5 |
| 20260509064524 | 47 | 138 | 0.0 | 1.0 | 0.00 | 0.01 | 0.00 | 90 | 1011.7 |
| 20260509063024 | 47 | 138 | 0.0 | 2.0 | 0.00 | 0.01 | 0.00 | 90 | 1011.6 |
| 20260509061523 | 47 | 138 | 0.0 | 2.0 | 0.00 | 0.01 | 0.00 | 90 | 1011.8 |
| 20260509060021 | 47 | 138 | 1.0 | 2.0 | 0.00 | 0.01 | 0.00 | 89 | 1012.0 |
| 20260509054517 | 47 | 138 | 1.0 | 3.0 | 0.00 | 0.02 | 0.00 | 89 | 1012.3 |
| 20260509053017 | 46 | 175 | 1.0 | 3.0 | 0.00 | 0.02 | 0.00 | 91 | 1012.7 |
| 20260509051514 | 45 | 144 | 1.0 | 4.0 | 0.00 | 0.02 | 0.00 | 91 | 1012.8 |
| 20260509050019 | 45 | 151 | 0.0 | 5.0 | 0.00 | 0.02 | 0.00 | 90 | 1012.7 |
| 20260509044508 | 45 | 238 | 0.0 | 0.0 | 0.00 | 0.03 | 0.00 | 90 | 1011.8 |